SCP
0 -0 -0 -0 0 0 0 0 0 0 0 0 0 0 0 0 0 0 0 0 0 0 0 0 0 0 0 0 0 0 0 0 0 0 0 0 0 0 0 0 0 0 0
-0 -0 -0 0 0 0 0 0 0 0 0 0 0 0 0 0 0 0 0 0 0 0 0 0 0 0 0 0 0 0 0 0 0 0 0 0 0 0 0 0 -0 -0 -0
0 0 0 0 0 0 0 0 0 0 0 0 0 0 0 0 0 0 0 0 0 0 0 0 0 0 0 0 0 0 0 0 0 0 0 0 0 0 0 0 0 0 0
-0 0 -0 0 0 0 0 0 0 0 0 0 0 0 0 0 0 0 0 0 0 0 0 0 0 0 0 0 0 0 0 0 0 0 0 0 0 0 0 0 0 0 0
-0 0 -0 0 0 0 0 0 0 0 0 0 0 0 0 0 0 0 0 0 0 0 0 0 0 0 0 0 0 0 0 0 0 0 0 0 0 0 0 0 0 0 0
-0 -0 -0 0 0 0 0 0 0 0 0 0 0 0 0 0 0 0 0 0 0 0 0 0 0 0 0 0 0 0 0 0 0 -0 0 0 0 0 0 0 0 0 0
0 0 0 0 0 0 0 0 0 0 0 0 0 0 0 0 0 0 0 0 0 0 0 0 0 0 0 0 0 0 0 0 -0 0 0 0 0 0 0 0 0 0 0
0 0 0 0 0 0 0 0 0 0 0 0 0 0 0 0 0 0 0 0 0 0 0 0 0 0 0 0 0 0 0 -0 0 0 0 0 0 0 0 0 0 0 0
0 0 0 0 0 0 0 0 0 0 0 0 0 0 0 0 0 0 0 0 0 0 0 0 0 0 0 0 0 0 0 -0 -0 0 0 0 0 0 0 0 0 0 0
0 0 0 0 0 0 0 0 0 0 0 0 0 0 -0 0 0 0 0 0 0 0 0 0 0 0 0 0 0 0 -0 -0 -0 0 0 0 0 0 0 0 0 0 0
0 0 0 0 0 0 0 0 0 0 0 0 0 0 0 0 0 0 0 0 0 0 0 0 0 0 -0 -0 0 0 -0 -0 0 -0 0 0 0 0 0 0 0 0 0
0 0 0 0 0 0 0 0 0 0 0 0 0 0 0 0 0 0 0 0 0 0 0 0 0 -0 -0 0 0 0 0 0 0 -0 0 0 0 0 0 0 0 0 0
0 0 0 0 0 0 0 0 0 0 0 0 0 0 0 0 0 0 0 0 0 0 0 0 0 0 0 0 0 0 0 -0 0 0 0 0 0 0 0 0 0 0 0
0 1 0 0 0 0 0 0 0 0 0 0 0 0 0 0 0 0 0 0 0 0 0 0 0 0 0 0 0 0 0 -0 0 0 0 0 0 0 0 0 0 0 0
1 1 1 0 0 0 0 0 0 0 0 0 0 0 0 0 0 0 0 0 0 0 0 0 0 0 0 0 0 0 0 0 0 0 0 0 0 0 0 0 0 0 0
1 1 1 1 1 0 0 0 0 0 0 0 0 0 0 0 0 0 0 0 0 0 0 0 0 0 0 0 0 0 0 0 0 0 0 0 0 0 0 0 0 0 0
0 1 1 1 1 1 0 0 0 0 0 0 0 0 0 0 0 0 0 0 0 0 0 0 0 0 0 0 0 0 0 0 0 0 0 0 0 0 0 0 0 0 0
0 0 1 1 1 1 1 0 0 0 0 0 0 0 0 0 0 0 0 0 0 0 0 0 0 0 0 0 0 0 0 0 0 0 0 0 0 0 0 0 0 0 0
0 0 0 1 0 1 1 1 0 0 0 0 0 0 0 0 0 0 0 0 0 0 0 0 0 0 0 0 0 0 0 0 0 0 0 0 0 0 0 0 0 0 0
-0 0 0 0 1 1 1 1 0 0 0 0 0 0 0 0 0 0 0 0 0 0 0 0 0 0 0 0 0 0 0 0 0 0 0 0 0 0 0 0 0 0 0
-0 0 0 0 1 1 1 0 0 0 0 0 0 0 0 0 0 0 0 0 0 0 0 0 0 0 0 0 0 0 0 0 0 0 0 0 0 0 0 0 0 0 0
0 0 0 0 0 1 0 0 0 0 0 0 0 0 0 0 0 0 0 0 0 0 0 0 0 0 0 0 0 0 0 0 0 0 0 0 0 0 0 0 0 0 0
0 0 0 0 0 0 0 0 0 0 0 0 0 0 0 0 0 0 0 0 0 0 0 0 0 0 0 0 0 0 0 0 0 0 0 0 0 0 0 0 0 0 0
0 0 0 0 0 0 1 0 0 0 0 0 0 0 0 0 0 0 0 0 0 0 0 0 0 0 0 0 0 0 0 0 0 0 0 0 0 0 0 0 0 0 0
1 0 1 1 1 0 0 0 0 0 0 0 0 0 0 0 0 0 0 0 0 0 0 0 0 0 0 0 0 0 0 0 0 0 0 0 0 0 0 0 0 0 0
1 0 1 1 1 0 0 0 0 0 0 0 0 0 0 0 0 0 0 0 0 0 0 0 0 0 0 0 0 0 0 0 0 0 0 0 0 0 0 0 0 0 0
Wind_Speed_500mb
11 10 2 2 3 6 8 8 8 7 9 10 10 13 12 10 6 5 2 6 8 6 6 5 6 11 18 21 21 20 20 19 20 20 19 15 15 17 16 16 17 30 34
18 13 7 7 6 8 10 8 6 6 10 11 13 11 7 3 1 2 2 3 3 3 5 6 6 2 9 16 21 24 22 22 22 20 17 8 6 10 14 15 18 17 22
18 15 9 12 12 10 10 6 3 5 7 10 9 5 1 2 4 4 3 2 4 5 7 8 7 5 2 8 14 21 27 27 26 23 17 7 9 14 13 15 20 17 17
19 16 9 13 13 12 8 4 1 2 6 7 5 3 4 5 6 5 4 3 4 4 6 8 10 7 5 3 8 13 19 28 30 25 14 15 14 17 16 15 17 18 15
19 15 9 13 16 15 11 7 6 7 6 4 4 4 6 8 8 9 10 10 9 9 8 7 8 9 9 5 4 9 13 18 27 24 16 17 17 19 20 19 11 9 17
17 14 11 14 16 16 14 11 8 6 5 6 6 6 10 9 10 10 11 11 12 12 11 9 7 6 9 11 10 6 8 11 13 11 21 22 20 26 23 24 22 19 14
17 13 9 12 15 16 17 18 15 12 12 12 11 8 7 6 7 8 9 10 11 9 10 9 7 6 7 11 12 8 4 6 10 13 17 20 17 28 25 26 21 17 13
17 14 7 8 14 15 19 19 17 16 14 12 10 8 5 2 3 6 7 9 11 11 8 7 8 9 7 9 11 7 1 7 7 9 8 12 28 24 25 26 24 21 19
18 16 11 10 8 10 14 17 16 15 13 11 7 4 2 1 5 8 7 9 9 12 12 10 12 12 7 4 8 7 8 12 15 5 11 14 22 19 18 22 23 19 15
19 16 12 14 10 9 5 11 14 13 12 12 8 5 2 5 9 11 7 13 10 13 12 10 12 12 9 2 4 8 10 14 9 9 14 12 20 20 20 19 15 12 8
20 19 18 16 16 13 11 5 9 10 10 8 8 8 8 4 5 10 7 9 11 13 11 10 12 11 12 11 3 5 8 4 10 13 16 18 20 19 17 16 12 8 10
25 25 22 19 19 17 13 12 9 5 2 3 2 6 6 2 2 3 8 14 16 11 13 16 15 14 18 5 8 6 2 7 13 14 13 18 19 18 15 11 6 8 10
26 27 28 25 20 22 16 15 12 8 5 2 6 8 6 4 4 5 8 10 8 14 9 12 14 8 6 3 4 5 5 10 13 15 13 19 16 13 10 7 6 8 9
27 31 30 30 25 24 23 18 16 12 8 6 4 6 9 7 5 3 4 7 10 7 12 16 13 10 6 6 4 4 10 12 14 13 13 18 15 10 8 7 7 6 11
29 32 35 35 32 26 25 22 18 17 12 11 6 2 3 5 2 2 2 4 5 7 11 13 11 6 6 6 5 2 10 15 16 15 8 17 13 11 11 11 11 11 13
33 35 37 39 35 28 26 24 20 18 18 13 12 7 1 3 1 3 6 7 8 10 12 11 5 3 4 3 3 3 7 11 13 15 13 11 15 14 14 14 14 15 14
33 38 39 39 35 31 28 26 26 20 18 16 14 12 7 2 5 2 5 7 7 9 10 12 7 5 5 3 3 1 3 11 11 13 13 13 14 14 16 18 20 19 16
22 28 35 36 36 35 33 27 23 22 19 19 19 14 11 8 2 7 8 8 8 8 8 9 4 5 3 3 6 5 6 7 11 11 11 11 12 12 17 20 18 16 17
25 12 16 33 34 32 33 28 24 25 22 21 20 17 16 13 8 3 7 8 7 6 5 4 5 4 6 5 5 9 9 9 9 10 13 12 13 12 13 23 25 23 26
24 15 1 18 31 32 31 30 20 23 19 23 22 21 19 14 12 10 9 8 4 5 4 4 3 5 4 7 3 9 12 12 12 13 12 9 11 12 15 21 22 23 34
23 23 13 11 28 35 32 21 17 17 17 21 21 23 19 17 18 14 9 11 7 4 9 5 4 5 2 3 2 4 11 15 17 18 16 17 19 21 21 21 22 24 28
15 15 10 12 19 29 25 21 17 13 16 18 20 23 22 21 20 18 14 12 12 9 9 10 8 6 5 5 5 9 15 16 21 27 25 25 26 25 26 25 28 30 29
11 8 11 12 14 21 33 33 28 26 18 17 19 19 22 25 24 24 23 17 15 10 11 12 12 11 7 11 9 10 12 12 7 20 24 23 28 27 28 30 28 24 24
7 4 1 9 15 21 30 31 31 22 17 15 18 19 22 25 26 26 26 24 17 14 17 15 16 15 14 13 16 15 17 19 11 18 16 23 25 30 26 28 26 27 27
15 12 7 12 19 26 27 34 33 28 23 16 22 21 23 27 26 24 28 27 25 18 20 20 21 19 18 16 20 17 19 18 22 21 32 27 24 26 25 26 26 29 30
14 19 15 17 17 19 26 30 33 33 32 21 24 22 20 24 26 28 28 29 30 27 23 21 23 23 20 21 21 23 25 25 27 31 35 34 31 29 32 31 32 29 29
Wind_Direction_500mb
138 166 69 11 142 154 168 185 186 219 249 281 294 305 309 307 306 317 340 13 42 26 24 0 272 234 250 245 235 224 210 200 200 192 185 177 174 169 170 173 196 185 202
142 152 53 24 92 140 155 165 188 216 269 289 299 301 305 324 22 58 83 48 53 0 0 344 320 204 222 243 238 231 227 222 217 206 194 185 206 189 175 165 150 154 174
135 138 68 35 66 96 119 122 163 227 275 281 284 295 339 55 69 82 78 34 0 351 331 322 324 314 208 232 247 230 228 225 225 224 205 166 224 221 193 178 166 179 184
146 134 129 59 79 78 94 93 80 305 300 304 326 32 63 75 92 78 43 28 13 6 0 346 341 344 333 259 237 253 238 233 228 222 217 228 216 222 209 198 193 195 207
143 132 83 72 71 67 72 60 20 353 341 349 61 82 96 100 91 81 74 67 59 55 50 35 8 0 5 356 279 247 243 232 235 229 218 229 212 231 207 202 180 193 167
147 137 71 79 78 76 71 59 42 39 50 73 84 99 115 96 86 73 66 59 55 55 53 51 56 31 8 354 341 302 252 243 221 220 236 230 209 227 202 193 193 196 192
148 141 110 99 92 89 79 73 77 80 91 95 95 97 115 95 71 57 39 30 29 28 36 28 26 24 14 0 349 329 267 207 166 229 231 217 215 220 198 192 201 207 205
163 148 183 115 94 89 80 80 80 81 91 93 93 103 123 104 28 20 19 0 7 2 352 351 342 347 351 0 6 354 126 153 111 214 203 209 211 203 198 203 210 212 217
171 167 164 158 100 96 91 84 78 77 82 76 79 87 96 53 329 328 330 335 337 344 338 340 341 336 331 339 26 59 106 120 132 180 149 180 174 176 177 181 192 197 210
184 184 174 174 175 159 133 87 79 72 70 64 68 72 69 14 347 339 336 322 325 331 332 337 346 350 347 287 47 77 121 127 130 149 148 172 171 165 175 170 174 184 204
200 193 190 183 189 175 189 161 81 73 75 58 44 53 52 34 342 11 297 301 328 331 336 349 354 358 18 358 318 92 94 159 173 161 171 199 161 162 158 158 170 209 264
206 204 202 196 197 195 185 200 173 170 169 180 41 57 55 58 139 79 22 3 344 335 355 351 351 16 25 335 308 13 49 180 171 160 158 172 161 161 164 176 221 283 294
216 212 210 205 209 201 190 199 204 201 223 264 27 50 26 69 13 36 17 355 6 352 344 341 336 333 322 32 332 236 194 149 163 177 195 170 170 173 190 226 272 297 316
226 218 218 211 221 214 206 206 209 206 212 226 249 16 26 59 26 48 20 16 10 337 338 334 326 306 324 335 343 197 170 172 173 174 224 185 186 201 224 245 268 283 305
243 232 222 212 225 229 227 220 207 217 228 230 226 291 60 106 125 49 0 39 22 10 348 346 345 321 324 336 9 125 163 178 187 188 209 223 212 223 237 239 242 279 300
258 243 226 219 225 231 235 233 228 222 225 222 231 209 261 142 99 9 4 7 9 2 353 352 338 15 332 332 0 86 167 186 187 200 209 221 254 250 230 231 251 280 279
276 254 234 219 223 228 237 234 232 229 233 227 224 240 221 180 342 42 338 0 337 348 0 352 357 5 0 338 267 256 193 204 206 204 205 218 266 295 236 236 243 261 254
303 250 228 219 217 229 236 231 229 233 230 230 230 222 226 237 305 4 339 330 306 338 349 353 349 337 323 297 249 239 232 194 199 201 206 214 235 243 284 271 254 250 253
14 350 220 208 213 218 231 226 229 230 234 230 230 225 233 221 226 281 294 293 314 321 333 0 324 305 293 295 248 231 222 212 208 219 221 235 243 244 242 272 267 269 270
57 50 1 213 212 216 225 225 229 233 239 221 223 224 230 229 240 267 279 289 306 295 300 280 336 299 305 302 259 226 213 222 235 235 232 246 252 259 269 255 266 285 283
74 71 91 197 224 220 223 213 225 240 248 238 230 225 225 227 239 250 249 263 258 257 241 268 305 299 275 294 264 232 229 233 231 231 242 247 266 276 274 275 275 271 271
57 83 107 161 208 220 219 215 219 248 261 247 246 238 236 238 237 247 241 242 238 235 258 245 247 218 259 268 249 257 243 235 243 245 248 260 264 267 272 275 275 274 275
30 62 123 165 186 209 220 231 245 259 273 260 248 251 249 245 240 241 241 224 234 232 243 244 243 227 245 271 261 266 273 265 284 255 245 261 266 267 270 277 276 270 273
347 335 179 153 192 217 230 225 238 228 234 243 237 239 233 246 241 237 233 233 233 227 232 243 241 223 251 260 275 271 261 275 275 287 249 276 273 274 270 267 263 274 274
282 287 272 213 215 222 234 232 247 243 251 262 236 238 250 241 247 233 229 234 236 235 243 230 232 240 241 250 272 280 279 286 288 283 289 283 272 280 273 270 268 267 269
264 262 239 229 225 243 243 249 255 256 266 249 229 228 234 241 249 232 225 237 243 239 238 243 241 239 233 246 261 271 277 281 286 285 282 283 279 277 273 272 270 271 270
Wind_Speed_850mb
11 10 2 2 3 6 8 8 8 7 9 10 10 13 12 10 6 5 2 6 8 6 6 5 6 11 18 21 21 20 20 19 20 20 19 15 15 17 16 16 17 30 34
18 13 7 7 6 8 10 8 6 6 10 11 13 11 7 3 1 2 2 3 3 3 5 6 6 2 9 16 21 24 22 22 22 20 17 8 6 10 14 15 18 17 22
18 15 9 12 12 10 10 6 3 5 7 10 9 5 1 2 4 4 3 2 4 5 7 8 7 5 2 8 14 21 27 27 26 23 17 7 9 14 13 15 20 17 17
19 16 9 13 13 12 8 4 1 2 6 7 5 3 4 5 6 5 4 3 4 4 6 8 10 7 5 3 8 13 19 28 30 25 14 15 14 17 16 15 17 18 15
19 15 9 13 16 15 11 7 6 7 6 4 4 4 6 8 8 9 10 10 9 9 8 7 8 9 9 5 4 9 13 18 27 24 16 17 17 19 20 19 11 9 17
17 14 11 14 16 16 14 11 8 6 5 6 6 6 10 9 10 10 11 11 12 12 11 9 7 6 9 11 10 6 8 11 13 11 21 22 20 26 23 24 22 19 14
17 13 9 12 15 16 17 18 15 12 12 12 11 8 7 6 7 8 9 10 11 9 10 9 7 6 7 11 12 8 4 6 10 13 17 20 17 28 25 26 21 17 13
17 14 7 8 14 15 19 19 17 16 14 12 10 8 5 2 3 6 7 9 11 11 8 7 8 9 7 9 11 7 1 7 7 9 8 12 28 24 25 26 24 21 19
18 16 11 10 8 10 14 17 16 15 13 11 7 4 2 1 5 8 7 9 9 12 12 10 12 12 7 4 8 7 8 12 15 5 11 14 22 19 18 22 23 19 15
19 16 12 14 10 9 5 11 14 13 12 12 8 5 2 5 9 11 7 13 10 13 12 10 12 12 9 2 4 8 10 14 9 9 14 12 20 20 20 19 15 12 8
20 19 18 16 16 13 11 5 9 10 10 8 8 8 8 4 5 10 7 9 11 13 11 10 12 11 12 11 3 5 8 4 10 13 16 18 20 19 17 16 12 8 10
25 25 22 19 19 17 13 12 9 5 2 3 2 6 6 2 2 3 8 14 16 11 13 16 15 14 18 5 8 6 2 7 13 14 13 18 19 18 15 11 6 8 10
26 27 28 25 20 22 16 15 12 8 5 2 6 8 6 4 4 5 8 10 8 14 9 12 14 8 6 3 4 5 5 10 13 15 13 19 16 13 10 7 6 8 9
27 31 30 30 25 24 23 18 16 12 8 6 4 6 9 7 5 3 4 7 10 7 12 16 13 10 6 6 4 4 10 12 14 13 13 18 15 10 8 7 7 6 11
29 32 35 35 32 26 25 22 18 17 12 11 6 2 3 5 2 2 2 4 5 7 11 13 11 6 6 6 5 2 10 15 16 15 8 17 13 11 11 11 11 11 13
33 35 37 39 35 28 26 24 20 18 18 13 12 7 1 3 1 3 6 7 8 10 12 11 5 3 4 3 3 3 7 11 13 15 13 11 15 14 14 14 14 15 14
33 38 39 39 35 31 28 26 26 20 18 16 14 12 7 2 5 2 5 7 7 9 10 12 7 5 5 3 3 1 3 11 11 13 13 13 14 14 16 18 20 19 16
22 28 35 36 36 35 33 27 23 22 19 19 19 14 11 8 2 7 8 8 8 8 8 9 4 5 3 3 6 5 6 7 11 11 11 11 12 12 17 20 18 16 17
25 12 16 33 34 32 33 28 24 25 22 21 20 17 16 13 8 3 7 8 7 6 5 4 5 4 6 5 5 9 9 9 9 10 13 12 13 12 13 23 25 23 26
24 15 1 18 31 32 31 30 20 23 19 23 22 21 19 14 12 10 9 8 4 5 4 4 3 5 4 7 3 9 12 12 12 13 12 9 11 12 15 21 22 23 34
23 23 13 11 28 35 32 21 17 17 17 21 21 23 19 17 18 14 9 11 7 4 9 5 4 5 2 3 2 4 11 15 17 18 16 17 19 21 21 21 22 24 28
15 15 10 12 19 29 25 21 17 13 16 18 20 23 22 21 20 18 14 12 12 9 9 10 8 6 5 5 5 9 15 16 21 27 25 25 26 25 26 25 28 30 29
11 8 11 12 14 21 33 33 28 26 18 17 19 19 22 25 24 24 23 17 15 10 11 12 12 11 7 11 9 10 12 12 7 20 24 23 28 27 28 30 28 24 24
7 4 1 9 15 21 30 31 31 22 17 15 18 19 22 25 26 26 26 24 17 14 17 15 16 15 14 13 16 15 17 19 11 18 16 23 25 30 26 28 26 27 27
15 12 7 12 19 26 27 34 33 28 23 16 22 21 23 27 26 24 28 27 25 18 20 20 21 19 18 16 20 17 19 18 22 21 32 27 24 26 25 26 26 29 30
14 19 15 17 17 19 26 30 33 33 32 21 24 22 20 24 26 28 28 29 30 27 23 21 23 23 20 21 21 23 25 25 27 31 35 34 31 29 32 31 32 29 29
Wind_Direction_850mb
138 166 69 11 142 154 168 185 186 219 249 281 294 305 309 307 306 317 340 13 42 26 24 0 272 234 250 245 235 224 210 200 200 192 185 177 174 169 170 173 196 185 202
142 152 53 24 92 140 155 165 188 216 269 289 299 301 305 324 22 58 83 48 53 0 0 344 320 204 222 243 238 231 227 222 217 206 194 185 206 189 175 165 150 154 174
135 138 68 35 66 96 119 122 163 227 275 281 284 295 339 55 69 82 78 34 0 351 331 322 324 314 208 232 247 230 228 225 225 224 205 166 224 221 193 178 166 179 184
146 134 129 59 79 78 94 93 80 305 300 304 326 32 63 75 92 78 43 28 13 6 0 346 341 344 333 259 237 253 238 233 228 222 217 228 216 222 209 198 193 195 207
143 132 83 72 71 67 72 60 20 353 341 349 61 82 96 100 91 81 74 67 59 55 50 35 8 0 5 356 279 247 243 232 235 229 218 229 212 231 207 202 180 193 167
147 137 71 79 78 76 71 59 42 39 50 73 84 99 115 96 86 73 66 59 55 55 53 51 56 31 8 354 341 302 252 243 221 220 236 230 209 227 202 193 193 196 192
148 141 110 99 92 89 79 73 77 80 91 95 95 97 115 95 71 57 39 30 29 28 36 28 26 24 14 0 349 329 267 207 166 229 231 217 215 220 198 192 201 207 205
163 148 183 115 94 89 80 80 80 81 91 93 93 103 123 104 28 20 19 0 7 2 352 351 342 347 351 0 6 354 126 153 111 214 203 209 211 203 198 203 210 212 217
171 167 164 158 100 96 91 84 78 77 82 76 79 87 96 53 329 328 330 335 337 344 338 340 341 336 331 339 26 59 106 120 132 180 149 180 174 176 177 181 192 197 210
184 184 174 174 175 159 133 87 79 72 70 64 68 72 69 14 347 339 336 322 325 331 332 337 346 350 347 287 47 77 121 127 130 149 148 172 171 165 175 170 174 184 204
200 193 190 183 189 175 189 161 81 73 75 58 44 53 52 34 342 11 297 301 328 331 336 349 354 358 18 358 318 92 94 159 173 161 171 199 161 162 158 158 170 209 264
206 204 202 196 197 195 185 200 173 170 169 180 41 57 55 58 139 79 22 3 344 335 355 351 351 16 25 335 308 13 49 180 171 160 158 172 161 161 164 176 221 283 294
216 212 210 205 209 201 190 199 204 201 223 264 27 50 26 69 13 36 17 355 6 352 344 341 336 333 322 32 332 236 194 149 163 177 195 170 170 173 190 226 272 297 316
226 218 218 211 221 214 206 206 209 206 212 226 249 16 26 59 26 48 20 16 10 337 338 334 326 306 324 335 343 197 170 172 173 174 224 185 186 201 224 245 268 283 305
243 232 222 212 225 229 227 220 207 217 228 230 226 291 60 106 125 49 0 39 22 10 348 346 345 321 324 336 9 125 163 178 187 188 209 223 212 223 237 239 242 279 300
258 243 226 219 225 231 235 233 228 222 225 222 231 209 261 142 99 9 4 7 9 2 353 352 338 15 332 332 0 86 167 186 187 200 209 221 254 250 230 231 251 280 279
276 254 234 219 223 228 237 234 232 229 233 227 224 240 221 180 342 42 338 0 337 348 0 352 357 5 0 338 267 256 193 204 206 204 205 218 266 295 236 236 243 261 254
303 250 228 219 217 229 236 231 229 233 230 230 230 222 226 237 305 4 339 330 306 338 349 353 349 337 323 297 249 239 232 194 199 201 206 214 235 243 284 271 254 250 253
14 350 220 208 213 218 231 226 229 230 234 230 230 225 233 221 226 281 294 293 314 321 333 0 324 305 293 295 248 231 222 212 208 219 221 235 243 244 242 272 267 269 270
57 50 1 213 212 216 225 225 229 233 239 221 223 224 230 229 240 267 279 289 306 295 300 280 336 299 305 302 259 226 213 222 235 235 232 246 252 259 269 255 266 285 283
74 71 91 197 224 220 223 213 225 240 248 238 230 225 225 227 239 250 249 263 258 257 241 268 305 299 275 294 264 232 229 233 231 231 242 247 266 276 274 275 275 271 271
57 83 107 161 208 220 219 215 219 248 261 247 246 238 236 238 237 247 241 242 238 235 258 245 247 218 259 268 249 257 243 235 243 245 248 260 264 267 272 275 275 274 275
30 62 123 165 186 209 220 231 245 259 273 260 248 251 249 245 240 241 241 224 234 232 243 244 243 227 245 271 261 266 273 265 284 255 245 261 266 267 270 277 276 270 273
347 335 179 153 192 217 230 225 238 228 234 243 237 239 233 246 241 237 233 233 233 227 232 243 241 223 251 260 275 271 261 275 275 287 249 276 273 274 270 267 263 274 274
282 287 272 213 215 222 234 232 247 243 251 262 236 238 250 241 247 233 229 234 236 235 243 230 232 240 241 250 272 280 279 286 288 283 289 283 272 280 273 270 268 267 269
264 262 239 229 225 243 243 249 255 256 266 249 229 228 234 241 249 232 225 237 243 239 238 243 241 239 233 246 261 271 277 281 286 285 282 283 279 277 273 272 270 271 270